Regional Weather Roundup
Issued by NWS Huntsville, AL

Home | Current Version | Previous Version | Text Only | Print | Product List | Glossary On
Versions: 1 2 3 4 5 6 7 8 9 10 11 12 13 14 15 16 17 18 19 20 21 22 23 24 25 26 27 28 29 30 31 32 33 34 35 36 37 38 39 40 41 42 43 44 45 46 47 48 49 50
000
ASUS44 KHUN 051310
RWRHUN

WEATHER ROUNDUP FOR THE TENNESSEE VALLEY
NATIONAL WEATHER SERVICE HUNTSVILLE AL
800 AM CDT TUE MAY 05 2015

ALZ001>004-051400-
NORTHWEST ALABAMA

CITY           SKY/WX    TMP DP  RH WIND       PRES   REMARKS
COURTLAND HCN    N/A     61  32  33 CALM        N/A
BANKHEAD NF      N/A     66  57  73 E1          N/A
SHOALS AIRPORT SUNNY     66  57  72 SE6       30.29R
SHOALS TVA RES   N/A     63 N/A N/A MISG        N/A
$$

ALZ005>007-016-051400-
NORTH CENTRAL ALABAMA

CITY           SKY/WX    TMP DP  RH WIND       PRES   REMARKS
CULLMAN AG STN   N/A     63 N/A N/A CALM        N/A
DECATUR AP     SUNNY     65  57  75 SE3       30.31R
HUNTSVILLE AP  SUNNY     67  57  70 SE6       30.30R
HUN NWS/UAH      N/A     68  54  60 SE5         N/A
MERIDIANVILLE  SUNNY     64  52  63 CALM      30.31S
REDSTONE ARSN  SUNNY     67  57  70 SE3       30.30R
VINEMONT AP    FAIR      65  54  67 SE3       30.33R
$$

ALZ008>010-051400-
NORTHEAST ALABAMA

CITY           SKY/WX    TMP DP  RH WIND       PRES   REMARKS
ALBERTVILLE    SUNNY     64  59  82 CALM      30.31S
FORT PAYNE     SUNNY     59  52  77 NE3       30.33S
SCOTTSBORO HCN   N/A     57 N/A N/A MISG        N/A
VALLEY HEAD      N/A     57 N/A N/A MISG        N/A
$$

TNZ076-096-097-051400-
SOUTHEASTERN MIDDLE TENNESSEE

CITY           SKY/WX    TMP DP  RH WIND       PRES   REMARKS
TULLAHOMA      SUNNY     64  54  68 CALM      30.33R
WINCHESTER     SUNNY     66  55  68 E5        30.32S
$$

...SURROUNDING SITES...

CITY           SKY/WX    TMP DP  RH WIND       PRES   REMARKS
ATLANTA        SUNNY     66  54  65 E5        30.35R
ANNISTON       SUNNY     65  55  70 NE5       30.32S
BIRMINGHAM     SUNNY     68  56  65 CALM      30.32S
CHATTANOOGA    SUNNY     62  56  80 CALM      30.34S
CORINTH        FAIR      64  57  77 SE5       30.26S
DALTON         SUNNY     63  57  82 CALM      30.35S
GADSDEN        SUNNY    N/A N/A N/A CALM      30.31S
GOLDEN TRNGL   SUNNY     66  55  68 E6        30.26R
HALEYVILLE       N/A     64  58  81 MISG      30.32R
JACKSON TN     SUNNY     68  56  65 S7        30.26R
MEMPHIS        PTSUNNY   69  58  67 S7        30.24R
NASHVILLE      SUNNY     65  56  72 S5        30.30R
OXFORD MS      LGT RAIN  66  57  72 S5        30.27R
ROME           SUNNY     62  56  80 CALM      30.34S
SAVANNAH       SUNNY     64  32  29 S3        30.27S
TUPELO         SUNNY     64  57  78 CALM      30.26R
TUSCALOOSA     SUNNY     66  57  72 NE3       30.28R
$$

...GULF COAST WEATHER...

CITY           SKY/WX    TMP DP  RH WIND       PRES   REMARKS
GULFPORT       SUNNY     70  63  78 E13       30.18S
PASCAGOULA     SUNNY     68  63  84 E6        30.20S
MOBILE         MOSUNNY   66  59  78 E9        30.22S
GULF SHORES    SUNNY     68  62  82 E6        30.21R
PENSACOLA      MOSUNNY   72  65  78 E9        30.21R
DESTIN         SUNNY     70  61  73 E9        30.23R
PANAMA CITY    SUNNY     69  60  74 E6        30.24R
APPALACHICOLA  SUNNY     73  62  68 NE8       30.22R
$$



USA.gov is the U.S. government's official web portal to all federal, state and local government web resources and services.